CMS-01

Last updated on Wed May 14 2025 00:02:45 GMT+0000 (Coordinated Universal Time)

1 47256U 20099A 25133.53914365 -.00000149 00000+0 00000+0 0 9997 2 47256 0.0784 91.6830 0004500 198.4360 218.5356 1.00271901 16190
UTC large
Height (km)
Speed (km/s)
/
Latitude / Longitude
Inclination (degrees)
Orbital Period (minutes)
Azimuth
Elevation
Range (km)
Doppler Factor

Next 0 passes for location: London (51.5072 / 0.1276)

Sorry there are no passes over London.